This is the latest recevied weather packets stored in our database for station/object GBTWP-2. If no packets are shown the sender has not sent any weather packets the latest 10 day(s).
| Time | Temp. | Humidity | Pressure | Rain* | Wind** | Luminosity | Snow |
|---|---|---|---|---|---|---|---|
| 1778034002 | 8.89° C | 64% | 1011.2 hPa | 0 mm | - | 0 W/m² | - |
| 1778033404 | 8.89° C | 62% | 1011.2 hPa | 0 mm | - | 0 W/m² | - |
| 1778033102 | 8.89° C | 64% | 1011.2 hPa | 0 mm | - | 0 W/m² | - |
| 1778032802 | 8.89° C | 61% | 1011.3 hPa | 0 mm | - | 0 W/m² | - |
| 1778032502 | 9.44° C | 62% | 1010.9 hPa | 0 mm | - | 0 W/m² | - |
| 1778032202 | 9.44° C | 60% | 1010.9 hPa | 0 mm | - | 0 W/m² | - |
| 1778031902 | 9.44° C | 55% | 1011 hPa | 0 mm | - | 0 W/m² | - |
| 1778031602 | 10° C | 56% | 1010.8 hPa | 0 mm | - | 0 W/m² | - |
| 1778031301 | 10° C | 52% | 1010.7 hPa | 0 mm | - | 0 W/m² | - |
| 1778031002 | 10° C | 53% | 1010.8 hPa | 0 mm | - | 0 W/m² | - |
| 1778030402 | 10° C | 51% | 1010.5 hPa | 0 mm | - | 0 W/m² | - |
| 1778030101 | 10° C | 51% | 1010.7 hPa | 0 mm | - | 0 W/m² | - |
| 1778029802 | 10° C | 54% | 1010.5 hPa | 0 mm | - | 0 W/m² | - |
| 1778029501 | 10° C | 51% | 1010.5 hPa | 0 mm | - | 0 W/m² | - |
| 1778029202 | 10.56° C | 51% | 1010.7 hPa | 0 mm | - | 0 W/m² | - |
| 1778028602 | 10.56° C | 51% | 1010.5 hPa | 0 mm | - | 0 W/m² | - |
| 1778027702 | 10.56° C | 47% | 1010.5 hPa | 0 mm | - | 1 W/m² | - |
| 1778027102 | 10.56° C | 48% | 1010.4 hPa | 0 mm | - | 1 W/m² | - |
| 1778026802 | 10.56° C | 47% | 1010.7 hPa | 0 mm | - | 2 W/m² | - |
| 1778026202 | 11.11° C | 47% | 1010.4 hPa | 0 mm | - | 2 W/m² | - |
| 1778025001 | 11.11° C | 44% | 1010 hPa | 0 mm | - | 8 W/m² | - |
| 1778023502 | 11.67° C | 46% | 1009.8 hPa | 0 mm | - | 15 W/m² | - |
| 1778023202 | 11.67° C | 44% | 1009.7 hPa | 0 mm | - | 11 W/m² | - |
| 1778022602 | 12.22° C | 44% | 1009.6 hPa | 0 mm | - | 13 W/m² | - |
| 1778021402 | 12.22° C | 43% | 1009.7 hPa | 0 mm | - | 28 W/m² | - |
* Rain latest hour (hover to see other rain measurements)
** Current wind speed in m/s (hover to see current wind gust speed)